Regional Weather Roundup
Issued by NWS Charleston, SC

Current Version | Previous Version | Graphics & Text | Print | Product List | Glossary On
Versions: 1 2 3 4 5 6 7 8 9 10 11 12 13 14 15 16 17 18 19 20 21 22 23 24 25 26 27 28 29 30 31 32 33 34 35 36 37 38 39 40 41 42 43 44 45 46 47 48 49 50
000
ASUS42 KCHS 040512
RWRCHS

REGIONAL WEATHER ROUNDUP
NATIONAL WEATHER SERVICE CHARLESTON SC
1200 AM EST SUN DEC 04 2016

NOTE: "FAIR" INDICATES FEW OR NO CLOUDS BELOW 12,000 FEET WITH NO
SIGNIFICANT WEATHER AND/OR OBSTRUCTIONS TO VISIBILITY.

NOT ALL STATIONS ARE QUALITY CONTROLLED. USE DATA WITH CAUTION...
ESPECIALLY DEWPOINT OBSERVATIONS.

SCZ027-030-031-034>040-042>050-040600-
...SOUTHEAST SOUTH CAROLINA...

CITY           SKY/WX    TMP DP  RH WIND       PRES   REMARKS
N CHARLESTON   CLOUDY    52  38  58 SE6       30.24F
WATERFRONT PRK   N/A     52  41  66 E7        30.24F
MOUNT PLEASANT NOT AVBL
JOHNS ISLAND   FAIR      52  37  58 NE3       30.25F
PINOPOLIS        N/A     52  39  62 E9        30.16F
MONCKS CORNER  CLOUDY    46  39  76 NE3       30.24F
SUMMERVILLE    CLOUDY    48  43  81 CALM      30.25F
BEAUFORT MCAS  MOCLDY    53  41  63 E5        30.24F
BEAUFORT ARPT  MOCLDY    54  43  66 E6        30.23F
HILTON HEAD IS PTCLDY    55  45  67 VRB6      30.23F
WALTERBORO     LGT RAIN  50  43  76 CALM      30.25S
ALLENDALE      CLOUDY    50  41  71 CALM      30.22F

...SOUTHERN MIDLANDS AND PEE DEE...

CITY           SKY/WX    TMP DP  RH WIND       PRES   REMARKS
GEORGETOWN     NOT AVBL
KINGSTREE      MOCLDY    45  41  87 CALM      30.26F
ORANGEBURG     LGT RAIN  48  42  80 CALM      30.23F
BARNWELL       NOT AVBL
AIKEN          CLOUDY    45  41  87 E5        30.24F
MANNING        NOT AVBL
COLUMBIA       CLOUDY    50  42  74 CALM      30.22F
SUMTER         CLOUDY    47  44  88 NE3       30.22F
FLORENCE       MOCLDY    47  43  86 CALM      30.26F
MYRTLE BEACH   CLOUDY    48  36  61 NE5       30.28F
N MYRTLE BEACH CLOUDY    46  40  79 CALM      30.26F

$$

GAZ063-065-086>088-099>101-113>116-118-119-134>141-150-040600-
...SOUTHEAST GEORGIA...

CITY           SKY/WX    TMP DP  RH WIND       PRES   REMARKS
SAVANNAH ARPT  CLOUDY    54  41  61 E7        30.22F
HUNTER AAF     CLOUDY    55  44  65 E7        30.19F
FORT STEWART   CLOUDY    54  42  62 CALM      30.19F
STATESBORO     MOCLDY    53  44  70 CALM      30.22F
SYLVANIA       CLOUDY   N/A N/A N/A E8        30.22F
CLAXTON        MOCLDY    54  46  74 NE3       30.22S

...CSRA...CENTRAL AND FAR SOUTHEAST GEORGIA...

CITY           SKY/WX    TMP DP  RH WIND       PRES   REMARKS
THOMSON        CLOUDY    49  47  93 CALM      30.25S
AUGUSTA-BUSH   CLOUDY    50  44  80 CALM      30.22F
AUGUSTA-DANIEL LGT RAIN  50  41  71 E5        30.21F
SWAINSBORO     CLOUDY    54  39  58 E6        30.21S
VIDALIA        CLOUDY    55  46  71 E6        30.21S
EASTMAN        CLOUDY    56  28  34 SE5       30.20F
HAZLEHURST     CLOUDY    57  46  66 SE7       30.19F
ALMA           CLOUDY    54  47  77 E3        30.19F
WAYCROSS       PTCLDY    57  52  83 E8        30.19F
JESUP          FAIR      54  48  82 NE3       30.21F
BAXLEY         MOCLDY    55  46  71 E5        30.19F
BRUNSWICK      MOCLDY    59  54  82 NE9       30.20F
SAINT SIMONS   MOCLDY    61  50  67 NE14      30.19F

$$

SCZ027-028-034-036>038-045-046-048>050-GAZ119-141-040600-
...LAKE AND SUPPLEMENTAL COASTAL OBSERVATIONS...

STATION/POSITION TIME  TEMP    WIND        PRES    WAVE   SWELL
                       AIR SEA DIR/SP/G            HT/PER HT/PER/DIR
                 (UTC) (F)     (DEG/KT/KT) (MB)    (FT/S) (FT/S/D)
WINYAH BAY       NOT AVBL
LAKE MURRAY      0420   51      70/  3/  4 1023.7F
ACE BASIN NERRS  0345   51      20/  1     1025.0
FORT PULASKI     0448   57 62   70/ 13/ 16 1023.3F
SAPELO ISLAND    0400   59      50/  9     1023.0

$$

ANZ835-935-AMZ111-154-330-350-352-354-370-450-454-472-040600-
...C-MAN AND BUOY OBSERVATIONS...

STATION/POSITION TIME  TEMP    WIND        PRES    WAVE   SWELL
                       AIR SEA DIR/SP/G            HT/PER HT/PER/DIR
                 (UTC) (F)     (DEG/KT/KT) (MB)    (FT/S) (FT/S/D)
BUOY 41004       0450   59 74   30/ 14/ 17 1023.5F   3/ 8   2/100/ 8
BUOY 41008       0450   62 65   60/ 17/ 21 1022.2F   4/ 5   2/110/ 8
FOLLY BEACH CMAN 0400   53      30/  9/ 10 1025.2F
CAPERS NEARSHORE 0408   53 62   30/ 10/ 14 1024.7F
FRIPP NEARSHORE  0408   57 63   50/ 12/ 16 1023.9F


STATION/POSITION TIME  TEMP    WIND        PRES    WAVE   SWELL
                       AIR SEA DIR/SP/G            HT/PER HT/PER/DIR
                 (UTC) (F)     (DEG/KT/KT) (MB)    (FT/S) (FT/S/D)
5E ST. MARYS GA  0430      66                N/A     5/ 5
FRYING PAN BUOY  0450   56 73   10/  8/ 14 1024.5F   3/ 8   2/ 90/ 8
BUOY 41025       0450   53 75  360/ 14/ 17 1024.6R   5/ 9   3/ 70/ 9
CAPE LOOKOUT NC  0400   50     340/  7/  9 1025.0R
BUOY 41002       0450   64 73  350/  8/ 14 1022.1R   5/ 7   5/ 7
BUOY 41010       NOT AVBL
ST AUGUSTINE FL  0500   69 67  100/ 10/ 11 1021.8F


$$




USA.gov is the U.S. government's official web portal to all federal, state and local government web resources and services.